Starlink 31681

operational
NORAD ID: 59746 Int'l Des: 2024-090 Owner: SPXS Country: US Constellation: starlink
LEOCIRCULAR

About Starlink 31681

Description loading...

Live Position

Loading 3D Globe...

Upcoming Passes

Altitude History

Altitude vs Time

uPlot chart will show altitude changes over time

Two-Line Element Set

1 59746U 24090S 25259.19436633 .00000246 00000-0 18473-4 0 9993
2 59746 43.0001 82.0027 0000810 312.6308 47.4475 15.27573580 76830
Epoch: Sep 16, 2025 • Age: 8 hours

Current Status

Altitude 485.5 km
Velocity 7.63 km/s
Sub-Earth Point 37.40°N, 14.33°E
Launch Date May 13, 2024
Age 1.3 years
Type internet

Technical Details

Classification Payload
Mass 730.00 kg
Dry Mass 700.00 kg
Total Mass 730.00 kg
Length 0.30 m
Diameter 4.10 m
Span 29.00 m
Shape Box + pan
Manufacturer SPXS
Bus Type Starlink V2M
Phase Status In Orbit
Owner/State SPXS/US

Large Constellations

Loading constellations...